| time (UTC) | temp C | wind direction | speed KPH | gust KPH | rain 1hr cm | rain 24hr cm | rain mn cm | humidity % | barometer mb |
| 20260503010028 | 10 | 45 | 0.0 | 0.0 | 0.00 | 0.00 | 0.00 | 63 | 1018.2 |
| 20260503005414 | 10 | 270 | 0.0 | 1.6 | 0.00 | 0.00 | 0.00 | 64 | 1018.2 |
| 20260503004843 | 10 | 45 | 3.2 | 6.4 | 0.00 | 0.00 | 0.00 | 60 | 1018.2 |
| 20260503004211 | 10 | 45 | 6.4 | 6.4 | 0.00 | 0.00 | 0.00 | 58 | 1018.2 |
| 20260503003641 | 10 | 225 | 0.0 | 3.2 | 0.00 | 0.00 | 0.00 | 58 | 1018.2 |
| 20260503003018 | 11 | 0 | 1.6 | 3.2 | 0.00 | 0.00 | 0.00 | 59 | 1018.2 |
| 20260503001815 | 11 | 338 | 4.8 | 4.8 | 0.00 | 0.00 | 0.00 | 57 | 1017.9 |
| 20260503001232 | 11 | 23 | 1.6 | 1.6 | 0.00 | 0.00 | 0.00 | 58 | 1018.2 |
| 20260503000048 | 11 | 270 | 3.2 | 3.2 | 0.00 | 0.00 | 0.00 | 55 | 1017.9 |
| 20260502235410 | 11 | 23 | 0.0 | 3.2 | 0.00 | 0.00 | 0.00 | 54 | 1017.9 |
| 20260502234841 | 11 | 23 | 8.0 | 8.0 | 0.00 | 0.00 | 0.00 | 54 | 1017.9 |
| 20260502234245 | 12 | 23 | 6.4 | 6.4 | 0.00 | 0.00 | 0.00 | 54 | 1017.9 |
| 20260502233641 | 12 | 0 | 1.6 | 4.8 | 0.00 | 0.00 | 0.00 | 53 | 1017.6 |
| 20260502232429 | 12 | 0 | 3.2 | 3.2 | 0.00 | 0.00 | 0.00 | 54 | 1017.6 |
| 20260502231840 | 12 | 90 | 4.8 | 9.7 | 0.00 | 0.00 | 0.00 | 53 | 1017.6 |
| 20260502231212 | 12 | 23 | 3.2 | 3.2 | 0.00 | 0.00 | 0.00 | 53 | 1017.6 |
| 20260502230630 | 12 | 68 | 8.0 | 8.0 | 0.00 | 0.00 | 0.00 | 53 | 1017.6 |
| 20260502230040 | 13 | 0 | 4.8 | 6.4 | 0.00 | 0.00 | 0.00 | 52 | 1017.2 |
| 20260502225434 | 13 | 293 | 3.2 | 6.4 | 0.00 | 0.00 | 0.00 | 52 | 1017.6 |
| 20260502224832 | 13 | 0 | 4.8 | 4.8 | 0.00 | 0.00 | 0.00 | 50 | 1017.6 |
| 20260502224227 | 13 | 270 | 3.2 | 6.4 | 0.00 | 0.00 | 0.00 | 52 | 1017.6 |
| 20260502223035 | 13 | 180 | 0.0 | 4.8 | 0.00 | 0.00 | 0.00 | 51 | 1017.6 |
| 20260502222421 | 13 | 23 | 3.2 | 6.4 | 0.00 | 0.00 | 0.00 | 50 | 1017.6 |
| 20260502221839 | 13 | 45 | 4.8 | 4.8 | 0.00 | 0.00 | 0.00 | 51 | 1017.6 |
| 20260502221254 | 13 | 23 | 6.4 | 6.4 | 0.00 | 0.00 | 0.00 | 51 | 1017.6 |
| 20260502220621 | 13 | 45 | 6.4 | 8.0 | 0.00 | 0.00 | 0.00 | 50 | 1017.6 |
| 20260502220030 | 13 | 293 | 3.2 | 8.0 | 0.00 | 0.00 | 0.00 | 51 | 1017.2 |
| 20260502215411 | 13 | 45 | 6.4 | 14.5 | 0.00 | 0.00 | 0.00 | 50 | 1017.2 |
| 20260502214823 | 13 | 203 | 6.4 | 11.3 | 0.00 | 0.00 | 0.00 | 50 | 1017.2 |
| 20260502213651 | 13 | 23 | 8.0 | 14.5 | 0.00 | 0.00 | 0.00 | 50 | 1017.2 |
| 20260502213041 | 13 | 0 | 4.8 | 12.9 | 0.00 | 0.00 | 0.00 | 50 | 1017.2 |
| 20260502212448 | 13 | 23 | 4.8 | 8.0 | 0.00 | 0.00 | 0.00 | 49 | 1017.2 |
| 20260502211814 | 13 | 338 | 3.2 | 6.4 | 0.00 | 0.00 | 0.00 | 48 | 1017.2 |
| 20260502211238 | 14 | 23 | 9.7 | 16.1 | 0.00 | 0.00 | 0.00 | 48 | 1017.2 |
| 20260502210627 | 13 | 23 | 11.3 | 12.9 | 0.00 | 0.00 | 0.00 | 49 | 1017.2 |
| 20260502210034 | 13 | 45 | 6.4 | 12.9 | 0.00 | 0.00 | 0.00 | 49 | 1017.2 |
| 20260502205414 | 13 | 45 | 6.4 | 8.0 | 0.00 | 0.00 | 0.00 | 50 | 1017.2 |
| 20260502204235 | 13 | 45 | 3.2 | 3.2 | 0.00 | 0.00 | 0.00 | 49 | 1017.2 |
| 20260502203612 | 13 | 0 | 6.4 | 12.9 | 0.00 | 0.00 | 0.00 | 49 | 1017.2 |
| 20260502203052 | 13 | 23 | 8.0 | 12.9 | 0.00 | 0.00 | 0.00 | 47 | 1017.2 |
| 20260502202443 | 13 | 23 | 16.1 | 19.3 | 0.00 | 0.00 | 0.00 | 47 | 1017.6 |
| 20260502201845 | 14 | 68 | 9.7 | 12.9 | 0.00 | 0.00 | 0.00 | 48 | 1017.2 |
| 20260502201211 | 14 | 338 | 3.2 | 3.2 | 0.00 | 0.00 | 0.00 | 46 | 1017.2 |
| 20260502200650 | 13 | 23 | 9.7 | 12.9 | 0.00 | 0.00 | 0.00 | 47 | 1017.6 |
| 20260502200039 | 14 | 23 | 4.8 | 12.9 | 0.00 | 0.00 | 0.00 | 47 | 1017.6 |
| 20260502195414 | 13 | 23 | 6.4 | 8.0 | 0.00 | 0.00 | 0.00 | 48 | 1017.6 |
| 20260502194838 | 13 | 23 | 12.9 | 14.5 | 0.00 | 0.00 | 0.00 | 49 | 1017.6 |
| 20260502194249 | 13 | 0 | 11.3 | 11.3 | 0.00 | 0.00 | 0.00 | 49 | 1017.6 |
| 20260502193634 | 13 | 338 | 9.7 | 12.9 | 0.00 | 0.00 | 0.00 | 48 | 1017.9 |
| 20260502193038 | 13 | 90 | 4.8 | 9.7 | 0.00 | 0.00 | 0.00 | 49 | 1017.9 |
| 20260502192426 | 13 | 23 | 9.7 | 17.7 | 0.00 | 0.00 | 0.00 | 48 | 1017.9 |
| 20260502191852 | 13 | 338 | 11.3 | 11.3 | 0.00 | 0.00 | 0.00 | 48 | 1017.9 |
| 20260502190615 | 13 | 45 | 16.1 | 16.1 | 0.00 | 0.00 | 0.00 | 48 | 1017.9 |
| 20260502190018 | 13 | 23 | 12.9 | 12.9 | 0.00 | 0.00 | 0.00 | 48 | 1017.9 |
| 20260502185438 | 13 | 315 | 6.4 | 8.0 | 0.00 | 0.00 | 0.00 | 48 | 1018.2 |
| 20260502184255 | 13 | 23 | 8.0 | 11.3 | 0.00 | 0.00 | 0.00 | 49 | 1018.2 |
| 20260502183654 | 12 | 338 | 4.8 | 22.5 | 0.00 | 0.00 | 0.00 | 49 | 1018.2 |
| 20260502183016 | 12 | 338 | 4.8 | 22.5 | 0.00 | 0.00 | 0.00 | 49 | 1018.2 |
| 20260502182440 | 13 | 23 | 19.3 | 19.3 | 0.00 | 0.00 | 0.00 | 48 | 1018.2 |
| 20260502181834 | 13 | 180 | 1.6 | 4.8 | 0.00 | 0.00 | 0.00 | 50 | 1018.2 |
| 20260502181254 | 14 | 293 | 1.6 | 1.6 | 0.00 | 0.00 | 0.00 | 49 | 1018.2 |
| 20260502180621 | 15 | 0 | 16.1 | 16.1 | 0.00 | 0.00 | 0.00 | 46 | 1018.2 |
| 20260502164244 | 14 | 0 | 6.4 | 6.4 | 0.00 | 0.00 | 0.00 | 50 | 1018.2 |
| 20260502163631 | 15 | 23 | 8.0 | 8.0 | 0.00 | 0.00 | 0.00 | 52 | 1018.6 |
| 20260502163054 | 15 | 270 | 6.4 | 12.9 | 0.00 | 0.00 | 0.00 | 51 | 1018.9 |
| 20260502162442 | 13 | 23 | 3.2 | 6.4 | 0.00 | 0.00 | 0.00 | 54 | 1018.9 |
| 20260502161816 | 13 | 293 | 3.2 | 4.8 | 0.00 | 0.00 | 0.00 | 54 | 1018.9 |
| 20260502161221 | 13 | 23 | 6.4 | 6.4 | 0.00 | 0.00 | 0.00 | 54 | 1018.9 |
| 20260502160623 | 13 | 0 | 9.7 | 11.3 | 0.00 | 0.00 | 0.00 | 55 | 1018.9 |
| 20260502151833 | 13 | 248 | 3.2 | 6.4 | 0.00 | 0.00 | 0.00 | 59 | 1019.3 |
| 20260502151241 | 12 | 180 | 3.2 | 3.2 | 0.00 | 0.00 | 0.00 | 62 | 1019.3 |
| 20260502150650 | 13 | 203 | 1.6 | 6.4 | 0.00 | 0.00 | 0.00 | 60 | 1019.3 |
| 20260502130631 | 8 | 203 | 0.0 | 4.8 | 0.00 | 0.00 | 0.00 | 88 | 1019.3 |
| 20260502123636 | 6 | 0 | 1.6 | 1.6 | 0.00 | 0.00 | 0.00 | 98 | 1019.3 |
| 20260502122440 | 5 | 158 | 0.0 | 0.0 | 0.00 | 0.00 | 0.00 | 99 | 1019.3 |
| 20260502121222 | 5 | 158 | 0.0 | 0.0 | 0.00 | 0.00 | 0.00 | 99 | 1019.3 |
| 20260502120644 | 5 | 225 | 0.0 | 3.2 | 0.00 | 0.00 | 0.00 | 99 | 1019.3 |
| 20260502115451 | 5 | 180 | 0.0 | 0.0 | 0.00 | 0.00 | 0.00 | 99 | 1019.3 |
| 20260502114813 | 3 | 225 | 0.0 | 0.0 | 0.00 | 0.00 | 0.00 | 99 | 1019.3 |
| 20260502114232 | 3 | 225 | 0.0 | 0.0 | 0.00 | 0.00 | 0.00 | 99 | 1019.3 |
| 20260502113611 | 3 | 270 | 0.0 | 0.0 | 0.00 | 0.00 | 0.00 | 99 | 1019.3 |
| 20260502113039 | 2 | 225 | 0.0 | 0.0 | 0.00 | 0.00 | 0.00 | 99 | 1019.3 |
| 20260502112437 | 2 | 270 | 0.0 | 0.0 | 0.00 | 0.00 | 0.00 | 99 | 1018.9 |
| 20260502111828 | 2 | 248 | 0.0 | 0.0 | 0.00 | 0.00 | 0.00 | 99 | 1018.9 |
| 20260502111226 | 2 | 203 | 0.0 | 0.0 | 0.00 | 0.00 | 0.00 | 99 | 1018.9 |
| 20260502110017 | 2 | 203 | 0.0 | 0.0 | 0.00 | 0.00 | 0.00 | 99 | 1018.6 |
| 20260502105418 | 2 | 203 | 0.0 | 0.0 | 0.00 | 0.00 | 0.00 | 99 | 1018.6 |
| 20260502104829 | 2 | 225 | 0.0 | 0.0 | 0.00 | 0.00 | 0.00 | 99 | 1018.9 |
| 20260502104217 | 2 | 203 | 0.0 | 0.0 | 0.00 | 0.00 | 0.00 | 99 | 1018.6 |
| 20260502103635 | 2 | 225 | 0.0 | 0.0 | 0.00 | 0.00 | 0.00 | 99 | 1018.9 |
| 20260502103043 | 2 | 225 | 0.0 | 0.0 | 0.00 | 0.00 | 0.00 | 99 | 1018.6 |
| 20260502102419 | 2 | 203 | 0.0 | 0.0 | 0.00 | 0.00 | 0.00 | 99 | 1018.9 |
| 20260502101847 | 2 | 203 | 0.0 | 0.0 | 0.00 | 0.00 | 0.00 | 99 | 1018.9 |
| 20260502100631 | 2 | 180 | 0.0 | 0.0 | 0.00 | 0.00 | 0.00 | 99 | 1019.3 |
| 20260502091252 | 2 | 180 | 0.0 | 0.0 | 0.00 | 0.00 | 0.00 | 99 | 1019.3 |
| 20260502090624 | 2 | 180 | 0.0 | 0.0 | 0.00 | 0.00 | 0.00 | 99 | 1019.3 |
| 20260502071224 | 4 | 225 | 0.0 | 0.0 | 0.00 | 0.00 | 0.00 | 99 | 1018.9 |
| 20260502070652 | 4 | 203 | 0.0 | 1.6 | 0.00 | 0.00 | 0.00 | 99 | 1018.9 |
| 20260502070035 | 4 | 180 | 0.0 | 0.0 | 0.00 | 0.00 | 0.00 | 99 | 1018.9 |
| 20260502063651 | 5 | 270 | 0.0 | 0.0 | 0.00 | 0.00 | 0.00 | 99 | 1018.9 |
| 20260502063042 | 5 | 203 | 3.2 | 3.2 | 0.00 | 0.00 | 0.00 | 99 | 1018.9 |
| 20260502061814 | 5 | 180 | 0.0 | 0.0 | 0.00 | 0.00 | 0.00 | 98 | 1018.9 |
| 20260502061249 | 5 | 203 | 0.0 | 0.0 | 0.00 | 0.00 | 0.00 | 97 | 1018.9 |
| 20260502060622 | 5 | 180 | 0.0 | 1.6 | 0.00 | 0.00 | 0.00 | 97 | 1019.3 |
| 20260502060047 | 6 | 180 | 0.0 | 0.0 | 0.00 | 0.00 | 0.00 | 97 | 1019.3 |
| 20260502055448 | 6 | 203 | 0.0 | 0.0 | 0.00 | 0.00 | 0.00 | 95 | 1019.3 |
| 20260502054820 | 6 | 203 | 0.0 | 1.6 | 0.00 | 0.00 | 0.00 | 93 | 1019.3 |
| 20260502054251 | 6 | 203 | 1.6 | 3.2 | 0.00 | 0.00 | 0.00 | 93 | 1019.3 |
| 20260502053021 | 6 | 180 | 0.0 | 0.0 | 0.00 | 0.00 | 0.00 | 90 | 1019.3 |
| 20260502052415 | 7 | 203 | 0.0 | 0.0 | 0.00 | 0.00 | 0.00 | 88 | 1019.3 |
| 20260502051826 | 7 | 203 | 0.0 | 0.0 | 0.00 | 0.00 | 0.00 | 87 | 1019.3 |
| 20260502051220 | 7 | 203 | 0.0 | 0.0 | 0.00 | 0.00 | 0.00 | 86 | 1019.3 |
| 20260502050628 | 7 | 180 | 0.0 | 0.0 | 0.00 | 0.00 | 0.00 | 85 | 1019.3 |
| 20260502050039 | 7 | 248 | 0.0 | 0.0 | 0.00 | 0.00 | 0.00 | 81 | 1019.3 |
| 20260502045433 | 8 | 270 | 0.0 | 0.0 | 0.00 | 0.00 | 0.00 | 82 | 1019.3 |
| 20260502044838 | 8 | 293 | 0.0 | 0.0 | 0.00 | 0.00 | 0.00 | 79 | 1019.3 |
| 20260502043629 | 8 | 0 | 1.6 | 1.6 | 0.00 | 0.00 | 0.00 | 78 | 1019.3 |
| 20260502043043 | 9 | 225 | 0.0 | 0.0 | 0.00 | 0.00 | 0.00 | 76 | 1019.3 |
| 20260502042435 | 9 | 225 | 0.0 | 0.0 | 0.00 | 0.00 | 0.00 | 75 | 1019.3 |
| 20260502041810 | 9 | 23 | 0.0 | 0.0 | 0.00 | 0.00 | 0.00 | 74 | 1019.3 |
| 20260502041217 | 9 | 338 | 1.6 | 1.6 | 0.00 | 0.00 | 0.00 | 73 | 1019.3 |
| 20260502040649 | 10 | 45 | 0.0 | 1.6 | 0.00 | 0.00 | 0.00 | 73 | 1019.3 |
| 20260502040019 | 10 | 338 | 3.2 | 4.8 | 0.00 | 0.00 | 0.00 | 72 | 1019.3 |
| 20260502035442 | 10 | 23 | 4.8 | 4.8 | 0.00 | 0.00 | 0.00 | 72 | 1019.3 |
| 20260502034810 | 10 | 338 | 1.6 | 3.2 | 0.00 | 0.00 | 0.00 | 71 | 1019.3 |
| 20260502034246 | 10 | 338 | 1.6 | 3.2 | 0.00 | 0.00 | 0.00 | 70 | 1019.3 |
| 20260502033649 | 10 | 23 | 3.2 | 6.4 | 0.00 | 0.00 | 0.00 | 69 | 1019.3 |
| 20260502033012 | 10 | 23 | 4.8 | 6.4 | 0.00 | 0.00 | 0.00 | 69 | 1019.3 |
| 20260502032426 | 10 | 23 | 6.4 | 6.4 | 0.00 | 0.00 | 0.00 | 70 | 1019.3 |
| 20260502031841 | 10 | 45 | 4.8 | 4.8 | 0.00 | 0.00 | 0.00 | 71 | 1019.3 |
| 20260502031213 | 10 | 23 | 3.2 | 3.2 | 0.00 | 0.00 | 0.00 | 70 | 1019.6 |
| 20260502030616 | 10 | 158 | 1.6 | 8.0 | 0.00 | 0.00 | 0.00 | 70 | 1019.6 |
| 20260502030046 | 10 | 45 | 9.7 | 9.7 | 0.00 | 0.00 | 0.00 | 70 | 1019.6 |
| 20260502025414 | 10 | 0 | 6.4 | 9.7 | 0.00 | 0.00 | 0.00 | 71 | 1019.6 |
| 20260502024827 | 10 | 0 | 9.7 | 11.3 | 0.00 | 0.00 | 0.00 | 71 | 1019.6 |
| 20260502024219 | 11 | 338 | 3.2 | 3.2 | 0.00 | 0.00 | 0.00 | 71 | 1019.3 |
| 20260502023624 | 11 | 248 | 1.6 | 14.5 | 0.00 | 0.00 | 0.00 | 70 | 1019.3 |
| 20260502023047 | 11 | 0 | 9.7 | 14.5 | 0.00 | 0.00 | 0.00 | 71 | 1019.3 |
| 20260502022427 | 11 | 23 | 8.0 | 11.3 | 0.00 | 0.00 | 0.00 | 71 | 1019.3 |
| 20260502021812 | 11 | 0 | 9.7 | 12.9 | 0.00 | 0.00 | 0.00 | 71 | 1019.3 |
| 20260502021234 | 11 | 23 | 8.0 | 9.7 | 0.00 | 0.00 | 0.00 | 71 | 1018.9 |
| 20260502020614 | 11 | 338 | 6.4 | 16.1 | 0.00 | 0.00 | 0.00 | 72 | 1018.6 |
| 20260502020036 | 11 | 0 | 8.0 | 11.3 | 0.00 | 0.00 | 0.00 | 72 | 1018.6 |
| 20260502015431 | 11 | 68 | 11.3 | 12.9 | 0.00 | 0.00 | 0.00 | 73 | 1018.6 |
| 20260502014842 | 11 | 23 | 8.0 | 11.3 | 0.00 | 0.00 | 0.00 | 74 | 1017.9 |
| 20260502014227 | 12 | 0 | 4.8 | 4.8 | 0.00 | 0.00 | 0.00 | 74 | 1017.9 |
| 20260502013620 | 12 | 23 | 8.0 | 11.3 | 0.00 | 0.00 | 0.00 | 74 | 1017.6 |
| 20260502013036 | 12 | 23 | 6.4 | 17.7 | 0.00 | 0.00 | 0.00 | 75 | 1017.6 |
| 20260502012450 | 12 | 23 | 6.4 | 8.0 | 0.00 | 0.00 | 0.00 | 75 | 1017.6 |
| 20260502011841 | 12 | 23 | 9.7 | 12.9 | 0.00 | 0.00 | 0.00 | 74 | 1017.2 |
| 20260502011224 | 12 | 23 | 4.8 | 4.8 | 0.00 | 0.00 | 0.00 | 76 | 1017.2 |
| 20260502010625 | 12 | 0 | 0.0 | 4.8 | 0.00 | 0.00 | 0.00 | 77 | 1017.2 |